Terminal Aerodrome Forecast
Issued by NWS Chicago, IL

Home | Current Version | Previous Version | Graphics & Text | Print | Product List | Glossary On
Versions: 1 2 3 4 5 6 7 8 9 10 11 12 13 14 15 16 17 18 19 20 21 22 23 24 25 26 27 28 29 30 31 32
000
FTUS43 KLOT 170500
TAFRFD
TAF
KRFD 170526Z 1706/1806 16016KT P6SM BKN100 WS020/19041KT
     FM170900 17010KT P6SM BKN050 WS020/20045KT
     FM171400 24012G18KT P6SM SCT025 BKN040 BKN180
     FM172000 29010KT P6SM BKN040
     FM180300 03005KT P6SM SCT040 BKN250=

USA.gov is the U.S. government's official web portal to all federal, state and local government web resources and services.